TimeCST,TemperatureF,Dew PointF,Humidity,Sea Level PressureIn,VisibilityMPH,Wind Direction,Wind SpeedMPH,Gust SpeedMPH,PrecipitationIn,Events,Conditions,WindDirDegrees,DateUTC
12:15 AM,41.0,39.2,93,30.08,4.0,ENE,8.1,-,0.01,Rain,Light Rain,60,2012-11-05 06:15:00
12:24 AM,41.0,39.2,93,30.08,4.0,ENE,8.1,-,0.01,Rain,Light Rain,60,2012-11-05 06:24:00
12:53 AM,42.1,39.0,89,30.10,4.0,NE,6.9,-,0.02,Rain,Light Rain,40,2012-11-05 06:53:00
1:53 AM,42.1,39.0,89,30.11,4.0,NNE,8.1,-,0.01,Rain,Light Rain,20,2012-11-05 07:53:00
2:53 AM,42.1,39.0,89,30.11,4.0,NNE,9.2,-,0.01,Rain,Light Rain,30,2012-11-05 08:53:00
3:53 AM,42.1,39.0,89,30.12,4.0,NNE,8.1,-,0.01,Rain,Light Rain,20,2012-11-05 09:53:00
4:53 AM,42.1,39.9,92,30.14,3.0,North,8.1,-,0.02,Rain,Light Rain,10,2012-11-05 10:53:00
5:53 AM,39.9,37.9,93,30.14,5.0,North,9.2,-,0.01,Rain,Light Rain,360,2012-11-05 11:53:00
6:44 AM,41.0,39.2,93,30.12,4.0,NNE,4.6,-,0.00,Rain,Light Rain,20,2012-11-05 12:44:00
6:53 AM,41.0,39.0,93,30.15,4.0,NNE,3.5,-,0.00,Rain,Light Rain,30,2012-11-05 12:53:00
7:09 AM,41.0,39.2,93,30.13,4.0,NE,3.5,-,0.01,Rain,Light Rain,40,2012-11-05 13:09:00
7:39 AM,39.2,37.4,93,30.14,2.0,North,10.4,-,0.01,Rain,Light Rain,10,2012-11-05 13:39:00
7:46 AM,39.2,37.4,93,30.14,1.8,North,9.2,-,0.01,Rain,Light Rain,360,2012-11-05 13:46:00
7:53 AM,39.0,37.0,93,30.17,1.8,North,10.4,-,0.01,Rain,Light Rain,360,2012-11-05 13:53:00
8:53 AM,39.9,37.9,93,30.18,1.5,North,6.9,-,0.01,Rain,Light Rain,10,2012-11-05 14:53:00
9:19 AM,39.2,37.4,93,30.15,2.0,North,3.5,-,0.01,Rain,Light Rain,10,2012-11-05 15:19:00
9:53 AM,41.0,37.9,89,30.18,2.5,Calm,Calm,-,0.01,,Overcast,0,2012-11-05 15:53:00
10:23 AM,41.0,37.4,87,30.16,3.0,Calm,Calm,-,N/A,,Overcast,0,2012-11-05 16:23:00
10:31 AM,41.0,39.2,93,30.16,2.5,North,3.5,-,N/A,,Overcast,350,2012-11-05 16:31:00
10:43 AM,41.0,37.4,87,30.16,3.0,NNW,3.5,-,N/A,,Overcast,330,2012-11-05 16:43:00
10:53 AM,41.0,37.9,89,30.19,4.0,Calm,Calm,-,N/A,,Overcast,0,2012-11-05 16:53:00
11:53 AM,41.0,37.9,89,30.18,3.0,SSE,3.5,-,N/A,,Overcast,160,2012-11-05 17:53:00
12:53 PM,41.0,39.0,93,30.16,2.0,SSW,6.9,-,N/A,,Overcast,200,2012-11-05 18:53:00
1:00 PM,41.0,39.2,93,30.13,1.2,SSW,4.6,-,N/A,,Overcast,210,2012-11-05 19:00:00
1:23 PM,41.0,39.2,93,30.13,2.0,SW,5.8,-,N/A,,Overcast,230,2012-11-05 19:23:00
1:31 PM,41.0,39.2,93,30.13,1.2,WSW,5.8,-,N/A,,Overcast,240,2012-11-05 19:31:00
1:53 PM,41.0,39.0,93,30.16,1.8,WSW,4.6,-,N/A,,Overcast,250,2012-11-05 19:53:00
2:18 PM,41.0,39.2,93,30.11,1.0,WNW,4.6,-,0.00,Rain,Light Rain,300,2012-11-05 20:18:00
2:53 PM,39.9,39.0,97,30.13,1.2,WNW,3.5,-,0.01,,Overcast,300,2012-11-05 20:53:00
3:06 PM,39.2,39.2,100,30.10,1.2,NW,3.5,-,N/A,,Overcast,310,2012-11-05 21:06:00
3:27 PM,39.2,39.2,100,30.11,1.8,West,3.5,-,N/A,,Overcast,270,2012-11-05 21:27:00
3:53 PM,39.9,37.9,93,30.14,1.2,West,5.8,-,N/A,,Overcast,280,2012-11-05 21:53:00
4:22 PM,39.2,37.4,93,30.11,1.2,West,5.8,-,N/A,,Overcast,270,2012-11-05 22:22:00
4:43 PM,39.2,37.4,93,30.09,1.2,West,4.6,-,0.01,,Overcast,260,2012-11-05 22:43:00
4:53 PM,39.9,37.9,93,30.12,1.2,WSW,5.8,-,0.01,,Overcast,250,2012-11-05 22:53:00
5:03 PM,39.2,37.4,93,30.09,1.5,WSW,5.8,-,N/A,,Overcast,250,2012-11-05 23:03:00
5:13 PM,39.2,37.4,93,30.09,2.0,WSW,5.8,-,N/A,,Overcast,250,2012-11-05 23:13:00
5:43 PM,39.2,37.4,93,30.08,2.5,SW,5.8,-,N/A,,Overcast,230,2012-11-05 23:43:00
5:53 PM,39.0,37.9,96,30.12,2.5,SW,4.6,-,N/A,,Overcast,230,2012-11-05 23:53:00
6:13 PM,39.2,37.4,93,30.09,3.0,WSW,6.9,-,N/A,,Overcast,250,2012-11-06 00:13:00
6:40 PM,39.2,37.4,93,30.09,6.0,WSW,6.9,-,N/A,,Overcast,250,2012-11-06 00:40:00
6:51 PM,39.2,37.4,93,30.09,6.0,WSW,5.8,-,N/A,,Overcast,240,2012-11-06 00:51:00
6:53 PM,39.0,37.0,93,30.12,6.0,WSW,6.9,-,N/A,,Overcast,240,2012-11-06 00:53:00
7:53 PM,39.0,37.0,93,30.10,5.0,SSW,5.8,-,N/A,,Overcast,200,2012-11-06 01:53:00
8:53 PM,39.9,37.0,89,30.08,5.0,SSW,8.1,-,N/A,,Overcast,200,2012-11-06 02:53:00
9:38 PM,39.2,37.4,93,30.04,4.0,SSW,6.9,-,N/A,,Overcast,200,2012-11-06 03:38:00
9:53 PM,39.9,37.0,89,30.06,4.0,South,8.1,-,N/A,,Overcast,190,2012-11-06 03:53:00
10:53 PM,39.9,37.0,89,30.02,4.0,SSW,12.7,-,N/A,,Overcast,210,2012-11-06 04:53:00
11:42 PM,39.2,37.4,93,29.97,5.0,SSW,11.5,-,N/A,,Mostly Cloudy,210,2012-11-06 05:42:00
11:50 PM,39.2,37.4,93,29.98,5.0,SW,12.7,-,N/A,,Overcast,220,2012-11-06 05:50:00
11:53 PM,39.0,37.0,93,30.01,5.0,SSW,11.5,-,N/A,,Overcast,210,2012-11-06 05:53:00